Regional Weather Roundup
Issued by NWS Charleston, SC

Current Version | Previous Version | Graphics & Text | Print | Product List | Glossary On
Versions: 1 2 3 4 5 6 7 8 9 10 11 12 13 14 15 16 17 18 19 20 21 22 23 24 25 26 27 28 29 30 31 32 33 34 35 36 37 38 39 40 41 42 43 44 45 46 47 48 49 50
000
ASUS42 KCHS 190412
RWRCHS

REGIONAL WEATHER ROUNDUP
NATIONAL WEATHER SERVICE CHARLESTON SC
1100 PM EST SAT FEB 18 2017

NOTE: "FAIR" INDICATES FEW OR NO CLOUDS BELOW 12,000 FEET WITH NO
SIGNIFICANT WEATHER AND/OR OBSTRUCTIONS TO VISIBILITY.

NOT ALL STATIONS ARE QUALITY CONTROLLED. USE DATA WITH CAUTION...
ESPECIALLY DEWPOINT OBSERVATIONS.

SCZ027-030-031-034>040-042>050-190500-
...SOUTHEAST SOUTH CAROLINA...

CITY           SKY/WX    TMP DP  RH WIND       PRES   REMARKS
N CHARLESTON   PTCLDY    53  48  83 SW6       29.97S
WATERFRONT PRK   N/A     57  52  83 CALM      29.97F
MOUNT PLEASANT LGT RAIN  52  48  87 CALM      29.98S
JOHNS ISLAND   FAIR      52  50  93 CALM      29.98F
PINOPOLIS        N/A     57  52  82 CALM      29.89R
MONCKS CORNER  MOCLDY    50  46  87 CALM      29.98R
SUMMERVILLE    FAIR      50  45  81 CALM      29.99S
BEAUFORT MCAS  CLEAR     50  49  96 N3        29.99S
BEAUFORT ARPT  FAIR      54  50  87 W3        29.98S
HILTON HEAD IS CLEAR     54  52  94 CALM      29.99F
WALTERBORO     PTCLDY    50  45  81 CALM      30.00S
ALLENDALE      FAIR      48  46  93 CALM      29.99S

...SOUTHERN MIDLANDS AND PEE DEE...

CITY           SKY/WX    TMP DP  RH WIND       PRES   REMARKS
GEORGETOWN     FAIR      52  48  87 CALM      29.98R
KINGSTREE      FAIR      46  43  87 CALM      29.97S
ORANGEBURG     PTCLDY    53  47  79 CALM      30.00R
BARNWELL       FAIR      50  48  93 CALM      30.01S
AIKEN          CLOUDY    46  46 100 CALM      30.03F FOG
MANNING        FAIR      46  43  87 MISG      29.99R
COLUMBIA       MOCLDY    51  49  92 CALM      30.00R
SUMTER         CLOUDY    54  47  77 W7        29.97R
FLORENCE       CLOUDY    54  47  77 W6        29.97R
MYRTLE BEACH   MOCLDY    59  50  72 S5        29.96F
N MYRTLE BEACH PTCLDY    56  52  86 S3        29.95F

$$

GAZ063-065-086>088-099>101-113>116-118-119-134>141-150-190500-
...SOUTHEAST GEORGIA...

CITY           SKY/WX    TMP DP  RH WIND       PRES   REMARKS
SAVANNAH ARPT  CLEAR     53  47  79 CALM      30.00S
HUNTER AAF     CLEAR     54  53  96 W5        29.97S
FORT STEWART   CLEAR     52  49  89 CALM      29.98S
STATESBORO     CLOUDY    54  54 100 CALM      30.00S
SYLVANIA       PTCLDY   N/A N/A N/A CALM      30.01S
CLAXTON        CLOUDY   N/A N/A N/A CALM      30.00F

...CSRA...CENTRAL AND FAR SOUTHEAST GEORGIA...

CITY           SKY/WX    TMP DP  RH WIND       PRES   REMARKS
THOMSON        CLOUDY    51  51 100 CALM      30.05S
AUGUSTA-BUSH   CLOUDY    51  49  92 CALM      30.00S
AUGUSTA-DANIEL CLOUDY    52  48  86 CALM      30.01S
SWAINSBORO     CLOUDY    52  50  93 CALM      30.01S
VIDALIA        MOCLDY    54  54 100 CALM      30.00S
EASTMAN        CLOUDY    55  55  97 CALM      30.03R
HAZLEHURST     CLOUDY    58  57  95 CALM      29.99S
ALMA           CLOUDY    58  55  90 CALM      30.00R
WAYCROSS       CLOUDY    58  58 100 CALM      30.01R
JESUP          MOCLDY    55  54  94 CALM      30.00S
BAXLEY         MOCLDY    55  55 100 CALM      30.00S
BRUNSWICK      PTCLDY    59  55  88 CALM      30.00F
SAINT SIMONS   MOCLDY    62  57  83 CALM      30.00S

$$

SCZ027-028-034-036>038-045-046-048>050-GAZ119-141-190500-
...LAKE AND SUPPLEMENTAL COASTAL OBSERVATIONS...

STATION/POSITION TIME  TEMP    WIND        PRES    WAVE   SWELL
                       AIR SEA DIR/SP/G            HT/PER HT/PER/DIR
                 (UTC) (F)     (DEG/KT/KT) (MB)    (FT/S) (FT/S/D)
WINYAH BAY       0245   59     270/  5     1014.0
LAKE MURRAY      0320   52     270/  3/  4 1014.9S
ACE BASIN NERRS  0245   54        CALM     1015.0
FORT PULASKI     0342   57 60  310/  3/  4 1015.8S
SAPELO ISLAND    0300   62        CALM     1016.0

$$

ANZ835-935-AMZ111-154-330-350-352-354-370-450-454-472-190500-
...C-MAN AND BUOY OBSERVATIONS...

STATION/POSITION TIME  TEMP    WIND        PRES    WAVE   SWELL
                       AIR SEA DIR/SP/G            HT/PER HT/PER/DIR
                 (UTC) (F)     (DEG/KT/KT) (MB)    (FT/S) (FT/S/D)
BUOY 41004       0250   68 69  250/ 12/ 12 1014.8    2/ 5   2/120/10
BUOY 41008       0350   63 61  230/ 10/ 12 1015.4R   2/ 5   2/ 50/10
FOLLY BEACH CMAN 0300   58     190/  3/  3 1015.5R
CAPERS NEARSHORE 0308   59 59  210/  6/  8 1014.9S
FRIPP NEARSHORE  0308   60 59  230/  2/  4 1015.1S


STATION/POSITION TIME  TEMP    WIND        PRES    WAVE   SWELL
                       AIR SEA DIR/SP/G            HT/PER HT/PER/DIR
                 (UTC) (F)     (DEG/KT/KT) (MB)    (FT/S) (FT/S/D)
5E ST. MARYS GA  0400      63                N/A     2/ 4
FRYING PAN BUOY  0350   65 64  250/  8/ 10 1014.9F   2/ 5   2/210/ 5
BUOY 41025       0350   67 67  230/ 19/ 21 1013.0S   5/ 5   2/ 40/11
CAPE LOOKOUT NC  0300   60     200/ 10/ 12 1013.4F
BUOY 41002       0350   70 71  200/ 17/ 21 1017.0F   4/ 6   2/ 10/ 8
BUOY 41010       NOT AVBL
ST AUGUSTINE FL  0400   65 66  280/  5/  8 1017.4R


$$




USA.gov is the U.S. government's official web portal to all federal, state and local government web resources and services.